Regional Weather Roundup
Issued by NWS

Home | Current Version | Previous Version | Text Only | Print | Product List | Glossary Off
Versions: 1 2 3 4 5 6 7 8 9 10 11 12 13 14 15 16 17 18 19 20 21 22 23 24 25 26 27 28 29 30 31 32 33 34 35 36 37 38 39 40 41 42 43 44 45 46 47 48 49 50

000
ASUS43 KLMK 252002
RWRKY
KENTUCKY REGIONAL WEATHER ROUNDUP
NATIONAL WEATHER SERVICE LOUISVILLE KY
400 PM EDT THU AUG 25 2016

NOTE "FAIR" INDICATES FEW OR NO CLOUDS BELOW 12,000 FEET
WITH NO SIGNIFICANT WEATHER AND/OR OBSTRUCTIONS TO VISIBILITY.

KYZ001>023-026-027-061>063-070>075-252100-
WESTERN AND SOUTH CENTRAL KENTUCKY

CITY           SKY/WX    TMP DP  RH WIND       PRES   REMARKS
PADUCAH        MOSUNNY   93  73  52 W5        30.07F HX 102
HENDERSON      SUNNY     93  70  46 SW9       30.06F HX  99
OWENSBORO      MOSUNNY   93  73  52 W9        30.09F HX 101
HOPKINSVILLE   MOSUNNY   89  72  56 SW8       30.09F HX  96
BOWLING GREEN  MOSUNNY   93  72  50 W12       30.10F HX 101
GLASGOW        MOSUNNY   91  72  53 W9        30.11F HX  98
$$

KYZ024-025-028>034-038-045-046-053-252100-
NORTH CENTRAL KENTUCKY

CITY           SKY/WX    TMP DP  RH WIND       PRES   REMARKS
LOUISVILLE/SDF MOSUNNY   92  67  43 SW12      30.07F HX  95
LOUISVILLE/LOU SUNNY     92  68  45 SW7       30.08F HX  96
FORT KNOX      SUNNY     91  71  52 SW12G17   30.08F HX  97
$$

KYZ035>037-039>044-047>052-055>060-089>105-252100-
NORTHEAST KENTUCKY

CITY           SKY/WX    TMP DP  RH WIND       PRES   REMARKS
LEXINGTON      MOSUNNY   91  69  48 W12       30.10F HX  96
COVINGTON      MOSUNNY   90  73  57 SW14      30.07F HX  98
FRANKFORT      PTSUNNY   91  69  48 W9        30.09F HX  96
$$

KYZ054-064>069-076>088-106>120-252100-
SOUTHEAST KENTUCKY

CITY           SKY/WX    TMP DP  RH WIND       PRES   REMARKS
JACKSON        MOSUNNY   89  74  60 VRB5      30.14F HX  98
LONDON         SUNNY     89  68  49 W9        30.14F HX  93
SOMERSET       PTSUNNY   88  70  55 CALM      30.14F HX  92
MIDDLESBORO    MOSUNNY   87  76  69 CALM      30.15F HX  96
MONTICELLO     PTCLDY   N/A N/A N/A NW10G16   30.15S
$$





USA.gov is the U.S. government's official web portal to all federal, state and local government web resources and services.